EHI
0 0 0 0 0 0 0 0 0 0 0 0 0 0 0 0 0 0 0 0 0 0 0 0 0 0 0 0 0 0 0 0 0 0 0 0 0 0 0 0 0 0 0
0 0 0 0 0 0 0 0 0 0 0 0 0 0 0 0 0 0 0 0 0 0 0 0 0 0 0 0 0 0 0 0 0 0 0 0 0 0 0 0 0 0 0
0 0 0 0 0 0 0 0 0 0 0 0 0 0 0 0 0 0 0 0 0 0 0 0 0 0 0 0 0 0 0 0 0 0 0 0 0 0 0 0 0 0 0
0 0 0 0 0 0 0 0 0 0 0 0 0 0 0 0 0 0 0 0 0 0 0 0 0 0 0 0 0 0 0 0 0 0 0 0 0 0 0 0 0 0 0
0 0 0 0 0 0 0 0 0 0 0 0 0 0 0 0 0 0 0 0 0 0 0 0 0 0 0 0 0 0 0 0 0 0 0 0 0 0 0 0 0 0 0
0 0 0 0 0 0 0 0 0 0 0 0 0 0 0 0 0 0 0 0 0 0 0 0 0 0 0 0 0 0 0 0 0 0 0 0 0 0 0 0 0 0 0
0 0 0 0 0 0 0 0 0 0 0 0 0 0 0 0 0 0 0 0 0 0 0 0 0 0 0 0 0 0 0 0 0 0 0 0 0 0 0 0 0 0 0
0 0 0 0 0 0 0 0 0 0 0 0 0 0 0 0 0 0 0 0 0 0 0 0 0 0 0 0 0 0 0 0 0 0 0 0 0 0 0 0 0 0 0
0 0 0 0 0 0 0 0 0 0 0 0 0 0 0 0 0 0 0 0 0 0 0 0 0 0 0 0 0 0 0 0 0 0 0 0 0 0 0 0 0 0 0
0 0 0 0 0 0 0 0 0 0 0 0 0 0 0 0 0 0 0 0 0 0 0 0 0 0 0 0 0 0 0 0 0 0 0 0 0 0 0 0 0 0 0
0 0 0 0 0 0 0 0 0 0 0 0 0 0 0 0 0 0 0 0 0 0 0 0 0 0 0 0 0 0 0 0 0 0 0 0 0 0 0 0 0 0 0
0 0 0 0 0 0 0 0 0 0 0 0 0 0 0 0 0 0 0 0 0 0 0 0 0 0 0 0 0 0 0 0 0 0 0 0 0 0 0 0 0 0 0
0 0 0 0 0 0 0 0 0 0 0 0 0 0 0 0 0 0 0 0 0 0 0 0 0 0 0 0 0 0 0 0 0 0 0 0 0 0 0 0 0 0 0
0 0 0 0 0 0 0 0 0 0 0 0 0 0 0 0 0 0 0 0 0 0 0 0 0 0 0 0 0 0 0 0 0 0 0 0 0 0 0 0 0 0 0
0 0 0 0 0 0 0 0 0 0 0 0 0 0 0 0 0 0 0 0 0 0 0 0 0 0 0 0 0 0 0 0 0 0 0 0 0 0 0 0 0 0 0
0 0 0 0 0 0 0 0 0 0 0 0 0 0 0 0 0 0 0 0 0 0 0 0 0 0 0 0 0 0 0 0 0 0 0 0 0 0 0 0 0 0 0
0 0 0 0 0 0 0 0 0 0 0 0 0 0 0 0 0 0 0 0 0 0 0 0 0 0 0 0 0 0 0 0 0 0 0 0 0 0 0 0 0 0 0
0 0 0 0 0 0 0 0 0 0 0 0 0 0 0 0 0 0 0 0 0 0 0 0 0 0 0 0 0 0 0 0 0 0 0 0 0 0 0 0 0 0 0
0 0 0 0 0 0 0 0 0 0 0 0 0 0 0 0 0 0 0 0 0 0 0 0 0 0 0 0 0 0 0 0 0 0 0 0 0 0 0 0 0 0 0
0 0 0 0 0 0 0 0 0 0 0 0 0 0 0 0 0 0 0 0 0 0 0 0 0 0 0 0 0 0 0 0 0 0 0 0 0 0 0 0 0 0 0
0 0 0 0 0 0 0 0 0 0 0 0 0 0 0 0 0 0 0 0 0 0 0 0 0 0 0 0 0 0 0 0 0 0 0 0 0 0 0 0 0 0 0
0 0 0 0 0 0 0 0 0 0 0 0 0 0 0 0 0 0 0 0 0 0 0 0 0 0 0 0 0 0 0 0 0 0 0 0 0 0 0 0 0 0 0
0 0 0 0 0 0 0 0 0 0 0 0 0 0 0 0 0 0 0 0 0 0 0 0 0 0 0 0 0 0 0 0 0 0 0 0 0 0 0 0 0 0 0
0 0 0 0 0 0 0 0 0 0 0 0 0 0 0 0 0 0 0 0 0 0 0 0 0 0 0 0 0 0 0 0 0 0 0 0 0 0 0 0 0 0 0
0 0 0 0 0 0 0 0 0 0 0 0 0 0 0 0 0 0 0 0 0 0 0 0 0 0 0 0 0 0 0 0 0 0 0 0 0 0 0 0 0 0 0
0 0 0 0 0 0 0 0 0 0 0 0 0 0 0 0 0 0 0 0 0 0 0 0 0 0 0 0 0 0 0 0 0 0 0 0 0 0 0 0 0 0 0
Wind_Speed
1 0 1 2 2 2 2 1 1 0 1 1 1 0 0 0 1 1 2 2 2 2 1 1 1 2 1 1 1 1 1 1 2 1 2 2 1 1 1 1 1 1 2
0 0 1 2 2 1 1 1 1 0 0 1 1 1 1 0 0 1 2 2 2 2 1 1 1 1 1 1 2 2 1 1 2 1 1 2 2 2 2 1 1 1 2
3 2 2 2 1 1 1 0 0 0 0 1 1 1 1 1 1 2 1 2 2 2 1 1 1 1 1 1 1 1 1 1 1 1 0 0 2 3 2 1 1 1 2
3 2 2 1 2 2 1 0 0 0 1 1 1 1 1 1 1 1 1 2 2 1 1 1 1 1 1 1 2 1 0 0 1 1 1 1 1 2 3 2 2 2 2
3 2 2 2 2 1 1 0 0 0 1 0 1 1 1 1 1 0 1 2 2 2 1 1 1 1 1 1 2 2 1 0 1 1 1 1 1 2 3 4 3 2 2
1 1 0 0 0 0 0 0 0 0 0 0 1 1 2 1 1 0 1 1 2 2 2 1 1 1 1 1 2 1 1 1 1 1 1 1 1 2 2 4 4 4 3
1 1 0 1 1 1 1 1 1 1 1 1 1 2 2 2 2 1 1 1 1 2 2 1 1 1 1 1 1 1 1 1 1 1 1 2 2 2 2 4 4 5 4
1 2 2 2 2 2 1 1 2 2 2 2 2 2 2 2 2 2 1 1 1 2 2 1 1 1 1 1 1 1 1 1 1 2 2 1 2 2 2 2 3 5 4
2 2 2 2 2 2 2 2 2 2 2 2 2 2 2 2 3 2 2 2 2 1 1 1 1 1 1 1 1 1 1 1 1 1 2 2 2 2 2 2 2 3 5
2 2 2 2 2 2 2 2 2 3 3 2 2 2 3 3 3 2 2 2 2 1 1 1 1 1 1 1 1 1 1 1 1 1 1 2 2 2 2 2 2 3 4
3 3 2 2 2 2 2 2 2 2 3 3 2 2 3 2 2 2 3 3 2 2 2 2 2 1 1 1 1 1 1 1 1 2 2 3 3 2 2 2 2 3 3
3 3 2 2 2 2 2 2 2 3 3 3 2 3 2 2 2 3 3 2 2 2 2 2 2 2 2 1 1 2 1 1 2 2 2 3 3 3 3 2 3 3 3
3 2 2 2 3 3 3 3 3 3 3 2 2 2 2 2 3 3 3 2 2 2 2 2 2 3 2 2 2 2 2 2 3 3 3 4 3 4 3 3 3 3 4
3 3 3 3 4 3 3 3 4 3 2 2 2 3 4 3 3 3 3 3 3 3 3 3 3 3 3 3 3 2 2 3 3 3 4 4 4 4 4 4 4 4 4
4 4 4 4 4 3 4 3 3 3 2 2 3 4 4 3 3 3 3 3 3 3 3 3 3 3 3 3 3 3 3 3 3 3 4 4 5 7 6 5 4 4 4
5 5 5 4 4 4 4 3 3 3 2 3 4 4 3 3 3 3 3 3 3 3 3 3 3 3 3 5 6 4 3 3 3 4 4 5 5 7 9 9 9 7 5
6 5 5 5 5 5 4 4 4 3 2 3 4 3 3 3 3 3 3 3 3 3 3 3 3 4 5 7 7 7 3 3 4 4 4 4 5 6 5 8 10 9 10
5 5 4 5 4 4 3 3 3 2 3 3 4 3 3 3 3 3 4 4 3 3 4 4 4 4 5 7 8 7 3 3 4 4 4 4 5 5 6 5 6 6 6
5 5 4 4 3 4 3 2 2 3 3 4 4 4 3 4 3 4 4 3 3 3 4 3 4 4 6 7 7 6 2 3 4 4 4 4 5 8 9 6 6 6 6
3 3 3 2 3 4 2 2 3 3 5 5 5 4 3 4 4 4 4 3 3 4 3 4 4 5 5 7 8 6 2 3 3 3 4 7 7 9 9 5 5 7 6
4 3 2 3 4 3 2 3 4 5 6 4 4 4 4 4 4 4 3 3 3 3 3 4 4 4 5 7 8 8 3 3 3 3 3 4 9 10 10 8 5 8 7
4 3 3 4 4 3 3 4 6 6 4 3 3 4 4 4 3 3 3 3 3 3 3 4 4 3 4 6 7 9 8 5 4 4 3 4 9 9 9 7 8 10 7
4 3 3 4 4 4 4 6 6 4 3 3 4 4 4 3 3 3 3 2 2 3 3 3 4 4 3 5 9 9 9 8 4 4 6 7 8 7 5 7 9 6 3
5 4 3 4 5 5 4 6 5 4 3 4 4 3 3 3 3 3 3 3 3 3 3 4 4 4 3 3 3 3 4 6 5 4 6 7 6 5 5 5 5 3 3
5 4 4 5 7 5 5 5 4 4 4 4 4 3 3 3 3 3 4 4 5 5 5 4 4 4 4 5 7 4 3 3 3 2 1 1 2 2 2 2 3 2 3
5 5 5 6 6 5 6 5 4 4 4 4 4 3 3 3 3 3 4 6 7 9 10 9 7 6 8 8 8 8 8 7 6 3 2 3 3 3 3 3 3 3 3
Wind_Direction
263 128 129 117 105 96 99 108 116 96 111 110 116 111 289 326 7 21 30 29 14 14 48 33 10 7 24 11 359 351 356 357 346 359 342 325 312 332 320 321 338 357 355
291 153 148 137 144 139 114 101 102 127 144 153 164 170 165 250 281 355 18 21 22 2 30 39 9 2 1 14 11 16 9 356 8 12 347 332 334 0 343 345 354 345 353
214 212 199 191 167 158 156 189 337 356 12 62 85 75 62 28 5 357 2 357 12 358 7 15 8 357 358 341 338 3 42 342 343 13 58 334 293 318 308 331 346 348 342
214 207 208 219 216 219 180 178 140 354 359 80 112 135 152 186 254 280 324 339 355 350 7 5 358 357 357 345 330 359 359 130 313 330 335 257 257 287 305 305 328 333 322
210 211 218 227 224 201 178 219 114 27 2 58 142 152 179 202 225 277 1 350 348 346 358 8 2 344 345 335 339 344 345 306 265 278 297 301 293 259 267 288 300 308 295
215 211 234 214 229 143 142 169 147 285 304 145 149 171 200 210 188 282 338 339 342 329 1 14 351 330 333 326 326 326 330 321 302 286 273 263 265 276 272 280 291 295 293
182 188 193 216 235 228 220 212 211 252 260 225 226 213 215 210 210 228 248 302 323 312 321 340 334 330 325 326 324 322 318 310 287 276 283 284 279 276 275 279 289 294 293
206 216 226 228 234 240 233 216 230 248 248 240 249 243 228 216 226 220 206 226 248 272 291 293 310 323 334 337 342 325 304 303 289 301 297 290 290 284 274 272 289 297 293
247 245 244 241 250 255 247 229 228 247 252 244 247 249 240 224 226 219 204 217 231 250 274 279 288 313 324 322 326 319 317 328 319 307 307 305 302 300 293 286 274 273 290
268 263 253 246 248 249 252 239 228 238 252 250 244 248 242 233 227 216 216 224 231 230 240 264 273 293 302 302 304 316 312 324 315 308 321 315 303 296 292 285 280 267 268
269 268 273 269 259 261 253 241 237 243 254 250 248 254 259 250 229 225 230 225 224 220 224 236 244 254 263 271 265 279 286 294 316 323 314 303 301 298 296 291 287 281 270
270 269 273 279 278 273 271 260 249 246 252 252 248 255 261 257 244 242 242 227 220 220 221 221 228 243 250 245 242 262 270 268 285 292 294 293 299 297 296 294 289 285 276
280 285 285 274 268 268 270 266 259 255 258 252 247 257 255 247 247 243 239 229 220 223 219 212 226 238 241 237 241 244 252 256 264 272 276 282 288 290 290 290 287 285 285
269 263 267 264 261 259 260 263 265 257 251 242 241 250 251 245 248 247 236 229 220 220 224 225 232 239 241 239 242 246 252 261 269 270 269 274 273 276 280 283 282 288 288
274 259 257 261 262 263 263 260 261 259 246 239 246 252 256 252 249 248 239 231 226 226 222 226 239 244 241 238 240 243 247 255 269 274 272 271 274 278 280 284 283 287 288
268 266 263 262 260 257 259 262 261 256 239 241 252 259 255 251 250 251 242 231 233 232 222 224 232 241 248 256 254 254 242 250 258 271 278 279 280 284 288 289 288 282 281
264 265 264 257 256 254 248 251 257 256 242 247 257 259 248 248 252 252 245 237 235 228 227 230 230 241 250 258 261 261 250 246 253 262 274 284 286 293 289 288 290 286 281
257 263 264 263 260 250 244 249 255 250 247 254 258 256 249 251 256 251 248 245 235 231 232 235 234 243 255 261 264 267 255 245 255 259 260 269 280 281 285 282 285 283 284
253 257 256 256 255 250 240 237 256 252 254 257 257 254 250 251 250 251 252 248 238 241 238 238 233 239 256 261 263 266 245 253 262 262 260 268 272 282 290 289 284 286 287
266 266 271 268 261 259 229 226 250 250 253 254 255 256 247 244 246 248 252 251 239 243 242 246 238 236 247 260 261 261 237 249 263 268 264 270 280 288 292 286 280 284 286
273 269 266 264 260 254 221 235 246 250 253 255 256 257 249 244 247 248 246 247 245 247 247 252 252 244 248 261 260 258 244 242 259 267 266 267 283 287 290 291 280 282 290
279 270 267 273 270 248 223 241 252 256 257 252 253 254 252 248 248 242 251 246 238 244 252 256 266 255 253 258 259 260 258 255 250 261 264 270 283 289 295 295 294 296 301
270 263 254 269 275 255 227 240 257 254 248 251 254 256 258 253 241 236 244 250 238 239 249 247 259 266 254 256 260 262 262 260 255 257 271 280 286 294 298 297 302 304 303
268 263 256 263 273 266 250 244 251 244 235 246 255 255 254 262 255 243 236 236 237 239 246 247 255 261 260 251 252 255 258 256 258 260 266 273 280 286 291 299 303 298 289
266 256 249 257 265 266 263 259 245 230 236 246 252 253 248 250 254 250 239 238 234 231 238 239 238 247 257 257 256 252 245 240 245 266 267 261 278 276 279 286 285 287 294
264 261 257 256 262 260 262 261 243 222 225 244 248 246 246 249 249 259 274 260 254 262 258 255 250 249 255 271 266 260 259 259 255 252 252 254 258 265 271 279 284 280 281